Time,TemperatureF,DewpointF,PressureIn,WindDirection,WindDirectionDegrees,WindSpeedMPH,WindSpeedGustMPH,Humidity,HourlyPrecipIn,Conditions,Clouds,dailyrainin,SoftwareType,DateUTC
2013-04-19 00:01:00,44.0,35.9,30.09,ENE,78,0.0,0.0,73,0.00,,,0.00,WeatherCatV1.15B25,2013-04-19 04:01:00,
2013-04-19 00:02:00,44.0,35.6,30.08,ENE,78,0.0,0.0,72,0.00,,,0.00,WeatherCatV1.15B25,2013-04-19 04:02:00,
2013-04-19 00:03:00,44.0,35.6,30.08,ENE,78,0.0,0.0,72,0.00,,,0.00,WeatherCatV1.15B25,2013-04-19 04:03:00,
2013-04-19 00:06:00,43.9,35.8,30.08,ENE,78,0.0,0.0,73,0.00,,,0.00,WeatherCatV1.15B25,2013-04-19 04:06:00,
2013-04-19 00:11:00,43.8,35.7,30.08,ENE,78,0.0,0.0,73,0.00,,,0.00,WeatherCatV1.15B25,2013-04-19 04:11:00,
2013-04-19 00:16:00,43.7,35.6,30.08,ENE,78,0.0,0.0,73,0.00,,,0.00,WeatherCatV1.15B25,2013-04-19 04:16:00,
2013-04-19 00:21:00,43.6,35.5,30.07,ENE,78,0.0,0.0,73,0.00,,,0.00,WeatherCatV1.15B25,2013-04-19 04:21:00,
2013-04-19 00:26:00,43.4,35.3,30.07,ENE,78,0.0,0.0,73,0.00,,,0.00,WeatherCatV1.15B25,2013-04-19 04:26:00,
2013-04-19 00:31:00,43.3,35.6,30.06,ENE,78,0.0,0.0,74,0.00,,,0.00,WeatherCatV1.15B25,2013-04-19 04:31:00,
2013-04-19 00:36:00,43.2,35.5,30.06,ENE,78,0.0,0.0,74,0.00,,,0.00,WeatherCatV1.15B25,2013-04-19 04:36:00,
2013-04-19 00:41:00,43.0,35.3,30.06,ENE,78,0.0,1.0,74,0.00,,,0.00,WeatherCatV1.15B25,2013-04-19 04:41:00,
2013-04-19 00:46:00,42.9,34.9,30.06,ENE,78,0.0,1.0,73,0.00,,,0.00,WeatherCatV1.15B25,2013-04-19 04:46:00,
2013-04-19 00:51:00,42.9,34.9,30.05,ENE,78,0.0,0.0,73,0.00,,,0.00,WeatherCatV1.15B25,2013-04-19 04:51:00,
2013-04-19 00:56:00,42.8,35.1,30.05,ENE,78,0.0,0.0,74,0.00,,,0.00,WeatherCatV1.15B25,2013-04-19 04:56:00,
2013-04-19 01:01:00,42.7,35.0,30.05,ENE,78,1.0,1.0,74,0.00,,,0.00,WeatherCatV1.15B25,2013-04-19 05:01:00,
2013-04-19 01:06:00,42.5,34.8,30.05,ENE,78,0.0,0.0,74,0.00,,,0.00,WeatherCatV1.15B25,2013-04-19 05:06:00,
2013-04-19 01:11:00,42.4,35.0,30.04,ENE,78,0.0,0.0,75,0.00,,,0.00,WeatherCatV1.15B25,2013-04-19 05:11:00,
2013-04-19 01:16:00,42.2,34.9,30.03,ENE,78,0.0,1.0,75,0.00,,,0.00,WeatherCatV1.15B25,2013-04-19 05:16:00,
2013-04-19 01:21:00,42.1,34.8,30.03,ENE,78,0.0,0.0,75,0.00,,,0.00,WeatherCatV1.15B25,2013-04-19 05:21:00,
2013-04-19 01:26:00,42.0,34.7,30.03,ENE,78,0.0,0.0,75,0.00,,,0.00,WeatherCatV1.15B25,2013-04-19 05:26:00,
2013-04-19 01:31:00,42.0,35.0,30.02,ENE,78,0.0,1.0,76,0.00,,,0.00,WeatherCatV1.15B25,2013-04-19 05:31:00,
2013-04-19 01:36:00,42.0,35.0,30.02,ENE,78,0.0,2.0,76,0.00,,,0.00,WeatherCatV1.15B25,2013-04-19 05:36:00,
2013-04-19 01:41:00,42.0,35.0,30.02,ENE,78,0.0,0.0,76,0.00,,,0.00,WeatherCatV1.15B25,2013-04-19 05:41:00,
2013-04-19 01:46:00,42.0,35.0,30.02,ENE,78,0.0,3.0,76,0.00,,,0.00,WeatherCatV1.15B25,2013-04-19 05:46:00,
2013-04-19 01:51:00,41.9,34.9,30.02,East,79,0.0,0.0,76,0.00,,,0.00,WeatherCatV1.15B25,2013-04-19 05:51:00,
2013-04-19 01:56:00,41.8,34.8,30.02,ENE,78,0.0,0.0,76,0.00,,,0.00,WeatherCatV1.15B25,2013-04-19 05:56:00,
2013-04-19 02:01:00,41.7,34.7,30.01,ENE,78,0.0,1.0,76,0.00,,,0.00,WeatherCatV1.15B25,2013-04-19 06:01:00,
2013-04-19 02:06:00,41.9,35.2,30.01,ENE,78,0.0,0.0,77,0.00,,,0.00,WeatherCatV1.15B25,2013-04-19 06:06:00,
2013-04-19 02:11:00,41.9,34.9,30.01,ENE,78,0.0,1.0,76,0.00,,,0.00,WeatherCatV1.15B25,2013-04-19 06:11:00,
2013-04-19 02:16:00,41.9,35.2,30.01,East,79,0.0,0.0,77,0.00,,,0.00,WeatherCatV1.15B25,2013-04-19 06:16:00,
2013-04-19 02:21:00,41.9,35.2,30.00,ENE,78,2.0,2.0,77,0.00,,,0.00,WeatherCatV1.15B25,2013-04-19 06:21:00,
2013-04-19 02:26:00,41.8,35.1,30.00,ENE,78,0.0,0.0,77,0.00,,,0.00,WeatherCatV1.15B25,2013-04-19 06:26:00,
2013-04-19 02:31:00,41.7,35.4,30.00,ENE,78,0.0,0.0,78,0.00,,,0.00,WeatherCatV1.15B25,2013-04-19 06:31:00,
2013-04-19 02:36:00,41.7,35.4,30.00,ENE,78,0.0,0.0,78,0.00,,,0.00,WeatherCatV1.15B25,2013-04-19 06:36:00,
2013-04-19 02:41:00,41.7,35.7,30.00,East,79,0.0,0.0,79,0.00,,,0.00,WeatherCatV1.15B25,2013-04-19 06:41:00,
2013-04-19 02:46:00,41.7,35.4,30.00,East,79,0.0,1.0,78,0.00,,,0.00,WeatherCatV1.15B25,2013-04-19 06:46:00,
2013-04-19 02:52:00,41.7,35.4,30.00,ENE,78,0.0,0.0,78,0.00,,,0.00,WeatherCatV1.15B25,2013-04-19 06:52:00,
2013-04-19 02:57:00,41.7,35.7,29.99,ENE,78,0.0,0.0,79,0.00,,,0.00,WeatherCatV1.15B25,2013-04-19 06:57:00,
2013-04-19 03:02:00,41.8,35.8,29.99,East,79,0.0,0.0,79,0.00,,,0.00,WeatherCatV1.15B25,2013-04-19 07:02:00,
2013-04-19 03:07:00,41.9,35.9,29.99,ENE,78,0.0,1.0,79,0.00,,,0.00,WeatherCatV1.15B25,2013-04-19 07:07:00,
2013-04-19 03:12:00,41.9,35.9,29.99,ENE,78,0.0,0.0,79,0.00,,,0.00,WeatherCatV1.15B25,2013-04-19 07:12:00,
2013-04-19 03:17:00,41.9,35.9,29.98,East,79,0.0,0.0,79,0.00,,,0.00,WeatherCatV1.15B25,2013-04-19 07:17:00,
2013-04-19 03:22:00,41.9,35.9,29.98,ENE,78,0.0,0.0,79,0.00,,,0.00,WeatherCatV1.15B25,2013-04-19 07:22:00,
2013-04-19 03:27:00,42.0,36.3,29.98,East,79,0.0,0.0,80,0.00,,,0.00,WeatherCatV1.15B25,2013-04-19 07:27:00,
2013-04-19 03:32:00,42.2,36.5,29.97,East,79,0.0,0.0,80,0.00,,,0.00,WeatherCatV1.15B25,2013-04-19 07:32:00,
2013-04-19 03:37:00,42.2,36.2,29.97,East,79,0.0,0.0,79,0.00,,,0.00,WeatherCatV1.15B25,2013-04-19 07:37:00,
2013-04-19 03:42:00,42.3,36.6,29.97,East,79,0.0,0.0,80,0.00,,,0.00,WeatherCatV1.15B25,2013-04-19 07:42:00,
2013-04-19 03:47:00,42.4,36.7,29.97,ENE,78,0.0,0.0,80,0.00,,,0.00,WeatherCatV1.15B25,2013-04-19 07:47:00,
2013-04-19 03:52:00,42.4,36.7,29.96,East,79,0.0,0.0,80,0.00,,,0.00,WeatherCatV1.15B25,2013-04-19 07:52:00,
2013-04-19 03:57:00,42.5,36.8,29.96,East,79,0.0,0.0,80,0.00,,,0.00,WeatherCatV1.15B25,2013-04-19 07:57:00,
2013-04-19 04:02:00,42.6,36.9,29.96,East,79,0.0,0.0,80,0.00,,,0.00,WeatherCatV1.15B25,2013-04-19 08:02:00,
2013-04-19 04:07:00,42.8,37.1,29.96,ENE,78,0.0,2.0,80,0.00,,,0.00,WeatherCatV1.15B25,2013-04-19 08:07:00,
2013-04-19 04:12:00,42.8,37.1,29.96,East,79,0.0,0.0,80,0.00,,,0.00,WeatherCatV1.15B25,2013-04-19 08:12:00,
2013-04-19 04:17:00,43.0,37.3,29.95,East,79,0.0,0.0,80,0.00,,,0.00,WeatherCatV1.15B25,2013-04-19 08:17:00,
2013-04-19 04:22:00,43.4,38.3,29.95,East,79,0.0,0.0,82,0.00,,,0.00,WeatherCatV1.15B25,2013-04-19 08:22:00,
2013-04-19 04:28:00,43.7,37.9,29.95,East,79,0.0,0.0,80,0.00,,,0.00,WeatherCatV1.15B25,2013-04-19 08:28:00,
2013-04-19 04:33:00,43.7,37.9,29.95,ENE,78,0.0,0.0,80,0.00,,,0.00,WeatherCatV1.15B25,2013-04-19 08:33:00,
2013-04-19 04:38:00,43.8,38.0,29.95,ENE,78,0.0,0.0,80,0.00,,,0.00,WeatherCatV1.15B25,2013-04-19 08:38:00,
2013-04-19 04:43:00,43.8,38.4,29.94,ENE,78,0.0,1.0,81,0.00,,,0.00,WeatherCatV1.15B25,2013-04-19 08:43:00,
2013-04-19 04:48:00,44.1,39.0,29.94,East,79,0.0,0.0,82,0.00,,,0.00,WeatherCatV1.15B25,2013-04-19 08:48:00,
2013-04-19 04:53:00,44.1,38.6,29.93,East,79,0.0,2.0,81,0.00,,,0.00,WeatherCatV1.15B25,2013-04-19 08:53:00,
2013-04-19 04:58:00,44.0,38.2,29.93,ENE,78,0.0,0.0,80,0.00,,,0.00,WeatherCatV1.15B25,2013-04-19 08:58:00,
2013-04-19 05:03:00,44.0,38.5,29.93,East,79,0.0,0.0,81,0.00,,,0.00,WeatherCatV1.15B25,2013-04-19 09:03:00,
2013-04-19 05:08:00,44.0,38.5,29.93,East,79,0.0,0.0,81,0.00,,,0.00,WeatherCatV1.15B25,2013-04-19 09:08:00,
2013-04-19 05:13:00,44.1,38.6,29.93,East,79,0.0,1.0,81,0.00,,,0.00,WeatherCatV1.15B25,2013-04-19 09:13:00,
2013-04-19 05:18:00,44.2,39.1,29.92,East,79,0.0,0.0,82,0.00,,,0.00,WeatherCatV1.15B25,2013-04-19 09:18:00,
2013-04-19 05:23:00,44.3,39.2,29.93,ENE,78,0.0,0.0,82,0.00,,,0.00,WeatherCatV1.15B25,2013-04-19 09:23:00,
2013-04-19 05:28:00,44.3,39.5,29.92,East,79,0.0,0.0,83,0.00,,,0.00,WeatherCatV1.15B25,2013-04-19 09:28:00,
2013-04-19 05:33:00,44.5,39.7,29.92,East,79,0.0,0.0,83,0.00,,,0.00,WeatherCatV1.15B25,2013-04-19 09:33:00,
2013-04-19 05:38:00,44.8,40.3,29.92,ENE,78,0.0,2.0,84,0.00,,,0.00,WeatherCatV1.15B25,2013-04-19 09:38:00,
2013-04-19 05:43:00,44.9,40.1,29.92,ENE,78,2.0,2.0,83,0.00,,,0.00,WeatherCatV1.15B25,2013-04-19 09:43:00,
2013-04-19 05:48:00,44.9,40.4,29.93,East,79,0.0,2.0,84,0.00,,,0.00,WeatherCatV1.15B25,2013-04-19 09:48:00,
2013-04-19 05:53:00,45.0,40.5,29.93,East,79,0.0,2.0,84,0.00,,,0.00,WeatherCatV1.15B25,2013-04-19 09:53:00,
2013-04-19 05:58:00,45.1,40.6,29.93,ENE,78,0.0,1.0,84,0.00,,,0.00,WeatherCatV1.15B25,2013-04-19 09:58:00,
2013-04-19 06:03:00,45.0,40.2,29.94,East,79,1.0,2.0,83,0.00,,,0.00,WeatherCatV1.15B25,2013-04-19 10:03:00,
2013-04-19 06:08:00,45.1,40.6,29.94,ENE,78,0.0,0.0,84,0.00,,,0.00,WeatherCatV1.15B25,2013-04-19 10:08:00,
2013-04-19 06:13:00,45.1,40.6,29.94,East,79,0.0,0.0,84,0.00,,,0.00,WeatherCatV1.15B25,2013-04-19 10:13:00,
2013-04-19 06:18:00,45.1,40.6,29.94,East,79,0.0,0.0,84,0.00,,,0.00,WeatherCatV1.15B25,2013-04-19 10:18:00,
2013-04-19 06:23:00,45.5,41.6,29.94,ENE,78,0.0,0.0,86,0.00,,,0.00,WeatherCatV1.15B25,2013-04-19 10:23:00,
2013-04-19 06:28:00,45.9,42.0,29.94,East,79,0.0,1.0,86,0.00,,,0.00,WeatherCatV1.15B25,2013-04-19 10:28:00,
2013-04-19 06:33:00,46.1,42.1,29.93,ENE,78,0.0,2.0,86,0.00,,,0.00,WeatherCatV1.15B25,2013-04-19 10:33:00,
2013-04-19 06:38:00,46.4,42.4,29.93,East,79,0.0,0.0,86,0.00,,,0.00,WeatherCatV1.15B25,2013-04-19 10:38:00,
2013-04-19 06:43:00,46.5,42.2,29.93,ENE,78,0.0,0.0,85,0.00,,,0.00,WeatherCatV1.15B25,2013-04-19 10:43:00,
2013-04-19 06:48:00,46.8,42.8,29.93,East,79,0.0,2.0,86,0.00,,,0.00,WeatherCatV1.15B25,2013-04-19 10:48:00,
2013-04-19 06:53:00,47.2,43.5,29.93,East,79,0.0,2.0,87,0.00,,,0.00,WeatherCatV1.15B25,2013-04-19 10:53:00,
2013-04-19 06:58:00,47.4,43.1,29.93,ENE,78,0.0,2.0,85,0.00,,,0.00,WeatherCatV1.15B25,2013-04-19 10:58:00,
2013-04-19 07:03:00,47.6,43.9,29.93,ENE,78,0.0,0.0,87,0.00,,,0.00,WeatherCatV1.15B25,2013-04-19 11:03:00,
2013-04-19 07:08:00,48.2,44.5,29.92,East,79,2.0,2.0,87,0.00,,,0.00,WeatherCatV1.15B25,2013-04-19 11:08:00,
2013-04-19 07:13:00,48.2,43.9,29.93,ENE,78,0.0,0.0,85,0.00,,,0.00,WeatherCatV1.15B25,2013-04-19 11:13:00,
2013-04-19 07:18:00,49.6,46.5,29.92,South,172,3.0,5.0,89,0.00,,,0.00,WeatherCatV1.15B25,2013-04-19 11:18:00,
2013-04-19 07:23:00,50.9,47.5,29.92,NE,51,0.0,3.0,88,0.00,,,0.00,WeatherCatV1.15B25,2013-04-19 11:23:00,
2013-04-19 07:28:00,52.1,48.7,29.92,NE,43,0.0,3.0,88,0.00,,,0.00,WeatherCatV1.15B25,2013-04-19 11:28:00,
2013-04-19 07:33:00,53.2,49.1,29.91,ENE,78,3.0,5.0,86,0.00,,,0.00,WeatherCatV1.15B25,2013-04-19 11:33:00,
2013-04-19 07:38:00,54.0,49.6,29.91,NE,56,1.0,1.0,85,0.00,,,0.00,WeatherCatV1.15B25,2013-04-19 11:38:00,
2013-04-19 07:43:00,54.7,50.0,29.91,SW,215,1.0,2.0,84,0.00,,,0.00,WeatherCatV1.15B25,2013-04-19 11:43:00,
2013-04-19 07:48:00,55.3,50.2,29.90,NE,56,4.0,4.0,83,0.00,,,0.00,WeatherCatV1.15B25,2013-04-19 11:48:00,
2013-04-19 07:53:00,55.9,50.5,29.90,ENE,59,1.0,3.0,82,0.00,,,0.00,WeatherCatV1.15B25,2013-04-19 11:53:00,
2013-04-19 07:58:00,56.3,50.9,29.90,ENE,75,0.0,2.0,82,0.00,,,0.00,WeatherCatV1.15B25,2013-04-19 11:58:00,
2013-04-19 08:03:00,56.7,50.9,29.91,ENE,75,0.0,3.0,81,0.00,,,0.00,WeatherCatV1.15B25,2013-04-19 12:03:00,
2013-04-19 08:08:00,57.0,50.9,29.91,SSW,194,0.0,0.0,80,0.00,,,0.00,WeatherCatV1.15B25,2013-04-19 12:08:00,
2013-04-19 08:13:00,57.1,51.0,29.90,NE,38,0.0,3.0,80,0.00,,,0.00,WeatherCatV1.15B25,2013-04-19 12:13:00,
2013-04-19 08:18:00,57.4,51.3,29.90,NW,310,0.0,5.0,80,0.00,,,0.00,WeatherCatV1.15B25,2013-04-19 12:18:00,
2013-04-19 08:23:00,57.7,51.2,29.89,NE,55,3.0,4.0,79,0.00,,,0.00,WeatherCatV1.15B25,2013-04-19 12:23:00,
2013-04-19 08:28:00,58.0,51.5,29.89,East,91,0.0,1.0,79,0.00,,,0.00,WeatherCatV1.15B25,2013-04-19 12:28:00,
2013-04-19 08:33:00,58.3,51.5,29.89,ENE,71,0.0,0.0,78,0.00,,,0.00,WeatherCatV1.15B25,2013-04-19 12:33:00,
2013-04-19 08:38:00,58.5,51.7,29.89,ENE,71,1.0,2.0,78,0.00,,,0.00,WeatherCatV1.15B25,2013-04-19 12:38:00,
2013-04-19 08:43:00,59.0,51.8,29.89,ENE,71,0.0,3.0,77,0.00,,,0.00,WeatherCatV1.15B25,2013-04-19 12:43:00,
2013-04-19 08:48:00,59.0,51.8,29.89,ENE,71,0.0,0.0,77,0.00,,,0.00,WeatherCatV1.15B25,2013-04-19 12:48:00,
2013-04-19 08:53:00,59.6,52.0,29.89,South,169,0.0,6.0,76,0.00,,,0.00,WeatherCatV1.15B25,2013-04-19 12:53:00,
2013-04-19 08:58:00,60.2,52.2,29.89,East,80,0.0,3.0,75,0.00,,,0.00,WeatherCatV1.15B25,2013-04-19 12:58:00,
2013-04-19 09:03:00,60.7,52.4,29.88,SSE,147,0.0,3.0,74,0.00,,,0.00,WeatherCatV1.15B25,2013-04-19 13:03:00,
2013-04-19 09:08:00,61.3,52.6,29.89,NE,54,3.0,5.0,73,0.00,,,0.00,WeatherCatV1.15B25,2013-04-19 13:08:00,
2013-04-19 09:13:00,61.6,52.5,29.88,ENE,65,2.0,3.0,72,0.00,,,0.00,WeatherCatV1.15B25,2013-04-19 13:13:00,
2013-04-19 09:18:00,61.6,52.5,29.88,West,275,1.0,6.0,72,0.00,,,0.00,WeatherCatV1.15B25,2013-04-19 13:18:00,
2013-04-19 09:23:00,61.8,52.7,29.88,South,184,0.0,4.0,72,0.00,,,0.00,WeatherCatV1.15B25,2013-04-19 13:23:00,
2013-04-19 09:28:00,62.7,53.2,29.87,South,190,0.0,4.0,71,0.00,,,0.00,WeatherCatV1.15B25,2013-04-19 13:28:00,
2013-04-19 09:33:00,62.7,52.8,29.87,SSE,162,3.0,7.0,70,0.00,,,0.00,WeatherCatV1.15B25,2013-04-19 13:33:00,
2013-04-19 09:38:00,62.8,52.9,29.87,South,182,1.0,2.0,70,0.00,,,0.00,WeatherCatV1.15B25,2013-04-19 13:38:00,
2013-04-19 09:43:00,63.8,53.8,29.86,SSE,160,2.0,5.0,70,0.00,,,0.00,WeatherCatV1.15B25,2013-04-19 13:43:00,
2013-04-19 09:48:00,64.0,53.2,29.86,South,184,2.0,4.0,68,0.00,,,0.00,WeatherCatV1.15B25,2013-04-19 13:48:00,
2013-04-19 09:53:00,64.5,53.7,29.86,ENE,78,4.0,6.0,68,0.00,,,0.00,WeatherCatV1.15B25,2013-04-19 13:53:00,
2013-04-19 09:58:00,64.3,53.1,29.86,NW,312,4.0,12.0,67,0.00,,,0.00,WeatherCatV1.15B25,2013-04-19 13:58:00,
2013-04-19 10:03:00,64.3,52.7,29.86,SSW,197,0.0,5.0,66,0.00,,,0.00,WeatherCatV1.15B25,2013-04-19 14:03:00,
2013-04-19 10:08:00,64.3,53.1,29.86,SSW,199,9.0,10.0,67,0.00,,,0.00,WeatherCatV1.15B25,2013-04-19 14:08:00,
2013-04-19 10:13:00,64.0,52.4,29.86,SW,218,1.0,9.0,66,0.00,,,0.00,WeatherCatV1.15B25,2013-04-19 14:13:00,
2013-04-19 10:18:00,64.2,53.0,29.85,NE,51,0.0,6.0,67,0.00,,,0.00,WeatherCatV1.15B25,2013-04-19 14:18:00,
2013-04-19 10:23:00,65.1,53.0,29.85,East,97,5.0,8.0,65,0.00,,,0.00,WeatherCatV1.15B25,2013-04-19 14:23:00,
2013-04-19 10:28:00,65.4,53.3,29.85,ESE,117,5.0,7.0,65,0.00,,,0.00,WeatherCatV1.15B25,2013-04-19 14:28:00,
2013-04-19 10:33:00,65.4,52.9,29.84,SSE,165,3.0,15.0,64,0.00,,,0.00,WeatherCatV1.15B25,2013-04-19 14:33:00,
2013-04-19 10:38:00,65.5,52.6,29.85,NE,53,3.0,7.0,63,0.00,,,0.00,WeatherCatV1.15B25,2013-04-19 14:38:00,
2013-04-19 10:43:00,64.8,52.3,29.85,North,0,2.0,7.0,64,0.00,,,0.00,WeatherCatV1.15B25,2013-04-19 14:43:00,
2013-04-19 10:48:00,65.0,52.5,29.84,East,96,0.0,6.0,64,0.00,,,0.00,WeatherCatV1.15B25,2013-04-19 14:48:00,
2013-04-19 10:53:00,65.0,52.1,29.84,East,89,1.0,9.0,63,0.00,,,0.00,WeatherCatV1.15B25,2013-04-19 14:53:00,
2013-04-19 10:58:00,64.9,52.4,29.85,SW,232,3.0,6.0,64,0.00,,,0.00,WeatherCatV1.15B25,2013-04-19 14:58:00,
2013-04-19 11:03:00,64.6,52.1,29.84,ENE,76,3.0,4.0,64,0.00,,,0.00,WeatherCatV1.15B25,2013-04-19 15:03:00,
2013-04-19 11:08:00,64.0,51.6,29.85,West,260,5.0,11.0,64,0.00,,,0.00,WeatherCatV1.15B25,2013-04-19 15:08:00,
2013-04-19 11:13:00,63.6,51.2,29.85,West,281,3.0,12.0,64,0.00,,,0.00,WeatherCatV1.15B25,2013-04-19 15:13:00,
2013-04-19 11:18:00,64.0,51.6,29.84,SSE,153,3.0,7.0,64,0.00,,,0.00,WeatherCatV1.15B25,2013-04-19 15:18:00,
2013-04-19 11:23:00,64.6,51.7,29.84,WSW,242,4.0,6.0,63,0.00,,,0.00,WeatherCatV1.15B25,2013-04-19 15:23:00,
2013-04-19 11:28:00,64.5,51.6,29.83,SE,130,3.0,6.0,63,0.00,,,0.00,WeatherCatV1.15B25,2013-04-19 15:28:00,
2013-04-19 11:33:00,64.6,52.1,29.83,South,178,2.0,2.0,64,0.00,,,0.00,WeatherCatV1.15B25,2013-04-19 15:33:00,
2013-04-19 11:38:00,65.6,51.8,29.83,ENE,68,2.0,6.0,61,0.00,,,0.00,WeatherCatV1.15B25,2013-04-19 15:38:00,
2013-04-19 11:43:00,65.8,51.5,29.82,South,172,1.0,13.0,60,0.00,,,0.00,WeatherCatV1.15B25,2013-04-19 15:43:00,
2013-04-19 11:48:00,66.5,52.2,29.81,ESE,105,3.0,6.0,60,0.00,,,0.00,WeatherCatV1.15B25,2013-04-19 15:48:00,
2013-04-19 11:53:00,67.0,52.6,29.81,SSE,161,0.0,6.0,60,0.00,,,0.00,WeatherCatV1.15B25,2013-04-19 15:53:00,
2013-04-19 11:58:00,67.9,52.6,29.80,West,265,4.0,7.0,58,0.00,,,0.00,WeatherCatV1.15B25,2013-04-19 15:58:00,
2013-04-19 12:03:00,68.7,52.8,29.80,West,259,4.0,6.0,57,0.00,,,0.00,WeatherCatV1.15B25,2013-04-19 16:03:00,
2013-04-19 12:08:00,68.8,52.9,29.81,WSW,246,7.0,8.0,57,0.00,,,0.00,WeatherCatV1.15B25,2013-04-19 16:08:00,
2013-04-19 12:13:00,67.6,52.8,29.80,WSW,249,6.0,11.0,59,0.00,,,0.00,WeatherCatV1.15B25,2013-04-19 16:13:00,
2013-04-19 12:18:00,67.2,52.8,29.80,SW,219,4.0,6.0,60,0.00,,,0.00,WeatherCatV1.15B25,2013-04-19 16:18:00,
2013-04-19 12:23:00,66.7,52.4,29.80,South,173,0.0,8.0,60,0.00,,,0.00,WeatherCatV1.15B25,2013-04-19 16:23:00,
2013-04-19 12:28:00,66.9,53.4,29.80,NNW,342,4.0,6.0,62,0.00,,,0.00,WeatherCatV1.15B25,2013-04-19 16:28:00,
2013-04-19 12:33:00,67.0,53.1,29.80,ENE,59,0.0,1.0,61,0.00,,,0.00,WeatherCatV1.15B25,2013-04-19 16:33:00,
2013-04-19 12:38:00,66.6,53.2,29.80,East,82,3.0,6.0,62,0.00,,,0.00,WeatherCatV1.15B25,2013-04-19 16:38:00,
2013-04-19 12:43:00,66.2,53.2,29.80,NE,40,1.0,4.0,63,0.00,,,0.00,WeatherCatV1.15B25,2013-04-19 16:43:00,
2013-04-19 12:48:00,65.9,52.9,29.79,ESE,121,1.0,7.0,63,0.00,,,0.00,WeatherCatV1.15B25,2013-04-19 16:48:00,
2013-04-19 12:53:00,65.7,53.2,29.79,SE,140,2.0,5.0,64,0.00,,,0.00,WeatherCatV1.15B25,2013-04-19 16:53:00,
2013-04-19 12:58:00,66.0,53.5,29.78,SSE,148,3.0,3.0,64,0.00,,,0.00,WeatherCatV1.15B25,2013-04-19 16:58:00,
2013-04-19 13:03:00,66.1,53.1,29.78,ENE,76,3.0,9.0,63,0.00,,,0.00,WeatherCatV1.15B25,2013-04-19 17:03:00,
2013-04-19 13:08:00,66.1,53.6,29.77,NE,53,6.0,9.0,64,0.00,,,0.00,WeatherCatV1.15B25,2013-04-19 17:08:00,
2013-04-19 13:13:00,66.3,53.3,29.77,ENE,69,12.0,15.0,63,0.00,,,0.00,WeatherCatV1.15B25,2013-04-19 17:13:00,
2013-04-19 13:18:00,65.9,53.4,29.77,ENE,75,8.0,8.0,64,0.00,,,0.00,WeatherCatV1.15B25,2013-04-19 17:18:00,
2013-04-19 13:24:00,65.7,53.2,29.77,NE,42,4.0,7.0,64,0.00,,,0.00,WeatherCatV1.15B25,2013-04-19 17:24:00,
2013-04-19 13:29:00,66.1,54.0,29.77,East,84,6.0,6.0,65,0.00,,,0.00,WeatherCatV1.15B25,2013-04-19 17:29:00,
2013-04-19 13:34:00,66.5,53.5,29.76,ENE,57,0.0,9.0,63,0.00,,,0.00,WeatherCatV1.15B25,2013-04-19 17:34:00,
2013-04-19 13:39:00,66.9,54.3,29.75,ESE,110,4.0,4.0,64,0.00,,,0.00,WeatherCatV1.15B25,2013-04-19 17:39:00,
2013-04-19 13:44:00,67.1,53.6,29.75,ENE,78,2.0,4.0,62,0.00,,,0.00,WeatherCatV1.15B25,2013-04-19 17:44:00,
2013-04-19 13:49:00,67.1,54.1,29.75,ENE,77,6.0,11.0,63,0.00,,,0.00,WeatherCatV1.15B25,2013-04-19 17:49:00,
2013-04-19 13:54:00,66.9,53.9,29.75,NE,53,3.0,13.0,63,0.00,,,0.00,WeatherCatV1.15B25,2013-04-19 17:54:00,
2013-04-19 13:59:00,67.1,54.1,29.74,East,92,0.0,5.0,63,0.00,,,0.00,WeatherCatV1.15B25,2013-04-19 17:59:00,
2013-04-19 14:04:00,67.7,54.2,29.74,ESE,113,2.0,5.0,62,0.00,,,0.00,WeatherCatV1.15B25,2013-04-19 18:04:00,
2013-04-19 14:09:00,67.9,53.9,29.74,ENE,57,2.0,11.0,61,0.00,,,0.00,WeatherCatV1.15B25,2013-04-19 18:09:00,
2013-04-19 14:14:00,67.8,54.3,29.74,ENE,59,1.0,6.0,62,0.00,,,0.00,WeatherCatV1.15B25,2013-04-19 18:14:00,
2013-04-19 14:19:00,67.9,54.4,29.73,NNE,19,6.0,7.0,62,0.00,,,0.00,WeatherCatV1.15B25,2013-04-19 18:19:00,
2013-04-19 14:24:00,68.4,54.4,29.72,SSE,153,0.0,7.0,61,0.00,,,0.00,WeatherCatV1.15B25,2013-04-19 18:24:00,
2013-04-19 14:29:00,68.9,54.4,29.72,ESE,105,4.0,10.0,60,0.00,,,0.00,WeatherCatV1.15B25,2013-04-19 18:29:00,
2013-04-19 14:34:00,68.7,55.1,29.72,ENE,65,1.0,6.0,62,0.00,,,0.00,WeatherCatV1.15B25,2013-04-19 18:34:00,
2013-04-19 14:39:00,68.7,54.7,29.72,SW,236,2.0,9.0,61,0.00,,,0.00,WeatherCatV1.15B25,2013-04-19 18:39:00,
2013-04-19 14:44:00,68.6,54.6,29.71,East,93,5.0,7.0,61,0.00,,,0.00,WeatherCatV1.15B25,2013-04-19 18:44:00,
2013-04-19 14:49:00,68.4,54.4,29.71,NE,56,5.0,14.0,61,0.00,,,0.00,WeatherCatV1.15B25,2013-04-19 18:49:00,
2013-04-19 14:54:00,68.4,54.9,29.71,East,84,5.0,12.0,62,0.00,,,0.00,WeatherCatV1.15B25,2013-04-19 18:54:00,
2013-04-19 14:59:00,68.5,55.0,29.71,SSE,162,5.0,5.0,62,0.00,,,0.00,WeatherCatV1.15B25,2013-04-19 18:59:00,
2013-04-19 15:04:00,68.6,55.0,29.71,West,265,0.0,12.0,62,0.00,,,0.00,WeatherCatV1.15B25,2013-04-19 19:04:00,
2013-04-19 15:09:00,68.6,55.5,29.70,WSW,250,0.0,5.0,63,0.00,,,0.00,WeatherCatV1.15B25,2013-04-19 19:09:00,
2013-04-19 15:14:00,68.8,55.7,29.70,West,281,14.0,14.0,63,0.00,,,0.00,WeatherCatV1.15B25,2013-04-19 19:14:00,
2013-04-19 15:19:00,68.9,55.8,29.70,ENE,63,4.0,4.0,63,0.00,,,0.00,WeatherCatV1.15B25,2013-04-19 19:19:00,
2013-04-19 15:24:00,69.4,55.4,29.70,West,274,3.0,7.0,61,0.00,,,0.00,WeatherCatV1.15B25,2013-04-19 19:24:00,
2013-04-19 15:29:00,69.5,55.4,29.70,ENE,57,5.0,7.0,61,0.00,,,0.00,WeatherCatV1.15B25,2013-04-19 19:29:00,
2013-04-19 15:34:00,69.4,55.4,29.69,SW,228,1.0,4.0,61,0.00,,,0.00,WeatherCatV1.15B25,2013-04-19 19:34:00,
2013-04-19 15:39:00,69.5,55.9,29.69,SW,228,1.0,3.0,62,0.00,,,0.00,WeatherCatV1.15B25,2013-04-19 19:39:00,
2013-04-19 15:44:00,69.6,55.1,29.69,NW,325,1.0,6.0,60,0.00,,,0.00,WeatherCatV1.15B25,2013-04-19 19:44:00,
2013-04-19 15:49:00,69.8,55.3,29.68,SE,126,3.0,3.0,60,0.00,,,0.00,WeatherCatV1.15B25,2013-04-19 19:49:00,
2013-04-19 15:54:00,70.0,55.0,29.68,SW,227,0.0,13.0,59,0.00,,,0.00,WeatherCatV1.15B25,2013-04-19 19:54:00,
2013-04-19 15:59:00,70.3,55.7,29.67,ESE,104,3.0,9.0,60,0.00,,,0.00,WeatherCatV1.15B25,2013-04-19 19:59:00,
2013-04-19 16:04:00,70.9,55.8,29.67,South,169,2.0,7.0,59,0.00,,,0.00,WeatherCatV1.15B25,2013-04-19 20:04:00,
2013-04-19 16:09:00,71.1,55.6,29.67,ENE,59,2.0,7.0,58,0.00,,,0.00,WeatherCatV1.15B25,2013-04-19 20:09:00,
2013-04-19 16:14:00,71.2,55.7,29.67,ENE,76,6.0,12.0,58,0.00,,,0.00,WeatherCatV1.15B25,2013-04-19 20:14:00,
2013-04-19 16:19:00,70.9,55.4,29.67,South,169,5.0,6.0,58,0.00,,,0.00,WeatherCatV1.15B25,2013-04-19 20:19:00,
2013-04-19 16:25:00,70.4,55.4,29.67,North,11,6.0,7.0,59,0.00,,,0.00,WeatherCatV1.15B25,2013-04-19 20:25:00,
2013-04-19 16:30:00,69.9,55.4,29.67,ENE,71,2.0,9.0,60,0.00,,,0.00,WeatherCatV1.15B25,2013-04-19 20:30:00,
2013-04-19 16:35:00,69.6,55.5,29.67,WNW,301,3.0,5.0,61,0.00,,,0.00,WeatherCatV1.15B25,2013-04-19 20:35:00,
2013-04-19 16:40:00,69.3,55.7,29.67,SE,130,3.0,5.0,62,0.00,,,0.00,WeatherCatV1.15B25,2013-04-19 20:40:00,
2013-04-19 16:45:00,69.1,55.5,29.67,ENE,64,5.0,5.0,62,0.00,,,0.00,WeatherCatV1.15B25,2013-04-19 20:45:00,
2013-04-19 16:50:00,69.0,55.4,29.67,East,96,1.0,5.0,62,0.00,,,0.00,WeatherCatV1.15B25,2013-04-19 20:50:00,
2013-04-19 16:55:00,68.8,55.7,29.66,North,355,1.0,3.0,63,0.00,,,0.00,WeatherCatV1.15B25,2013-04-19 20:55:00,
2013-04-19 17:00:00,68.8,56.1,29.66,South,182,4.0,10.0,64,0.00,,,0.00,WeatherCatV1.15B25,2013-04-19 21:00:00,
2013-04-19 17:05:00,68.8,56.1,29.65,SSW,196,3.0,3.0,64,0.00,,,0.00,WeatherCatV1.15B25,2013-04-19 21:05:00,
2013-04-19 17:10:00,68.8,56.1,29.65,East,90,4.0,6.0,64,0.00,,,0.00,WeatherCatV1.15B25,2013-04-19 21:10:00,
2013-04-19 17:15:00,68.8,56.1,29.65,ENE,59,2.0,2.0,64,0.00,,,0.00,WeatherCatV1.15B25,2013-04-19 21:15:00,
2013-04-19 17:20:00,69.0,56.3,29.65,SE,136,2.0,7.0,64,0.00,,,0.00,WeatherCatV1.15B25,2013-04-19 21:20:00,
2013-04-19 17:25:00,69.1,56.4,29.64,ENE,59,5.0,9.0,64,0.00,,,0.00,WeatherCatV1.15B25,2013-04-19 21:25:00,
2013-04-19 17:30:00,69.2,56.5,29.64,East,84,1.0,10.0,64,0.00,,,0.00,WeatherCatV1.15B25,2013-04-19 21:30:00,
2013-04-19 17:35:00,69.2,56.5,29.63,East,90,2.0,5.0,64,0.00,,,0.00,WeatherCatV1.15B25,2013-04-19 21:35:00,
2013-04-19 17:40:00,69.1,56.4,29.64,SSW,209,4.0,7.0,64,0.00,,,0.00,WeatherCatV1.15B25,2013-04-19 21:40:00,
2013-04-19 17:45:00,69.0,56.7,29.63,SE,138,1.0,5.0,65,0.00,,,0.00,WeatherCatV1.15B25,2013-04-19 21:45:00,
2013-04-19 17:50:00,68.8,56.5,29.63,NE,44,5.0,6.0,65,0.00,,,0.00,WeatherCatV1.15B25,2013-04-19 21:50:00,
2013-04-19 17:55:00,68.6,56.8,29.63,SSE,148,4.0,7.0,66,0.00,,,0.00,WeatherCatV1.15B25,2013-04-19 21:55:00,
2013-04-19 18:00:00,68.4,56.6,29.63,SE,134,0.0,1.0,66,0.00,,,0.00,WeatherCatV1.15B25,2013-04-19 22:00:00,
2013-04-19 18:05:00,68.0,56.6,29.62,NE,42,6.0,8.0,67,0.00,,,0.00,WeatherCatV1.15B25,2013-04-19 22:05:00,
2013-04-19 18:10:00,67.5,56.6,29.62,NNE,31,3.0,6.0,68,0.00,,,0.00,WeatherCatV1.15B25,2013-04-19 22:10:00,
2013-04-19 18:15:00,67.3,56.8,29.61,East,82,4.0,5.0,69,0.00,,,0.00,WeatherCatV1.15B25,2013-04-19 22:15:00,
2013-04-19 18:20:00,67.1,57.0,29.61,NE,40,4.0,4.0,70,0.00,,,0.00,WeatherCatV1.15B25,2013-04-19 22:20:00,
2013-04-19 18:25:00,66.9,56.8,29.61,NE,53,3.0,4.0,70,0.00,,,0.00,WeatherCatV1.15B25,2013-04-19 22:25:00,
2013-04-19 18:30:00,66.8,57.1,29.61,NE,43,5.0,6.0,71,0.00,,,0.00,WeatherCatV1.15B25,2013-04-19 22:30:00,
2013-04-19 18:35:00,66.8,57.1,29.60,East,82,1.0,5.0,71,0.00,,,0.00,WeatherCatV1.15B25,2013-04-19 22:35:00,
2013-04-19 18:40:00,66.8,57.1,29.60,NE,36,5.0,9.0,71,0.00,,,0.00,WeatherCatV1.15B25,2013-04-19 22:40:00,
2013-04-19 18:45:00,66.6,57.3,29.60,ESE,105,0.0,3.0,72,0.00,,,0.00,WeatherCatV1.15B25,2013-04-19 22:45:00,
2013-04-19 18:50:00,66.4,57.1,29.59,ESE,104,0.0,1.0,72,0.00,,,0.00,WeatherCatV1.15B25,2013-04-19 22:50:00,
2013-04-19 18:55:00,66.2,56.9,29.59,ENE,65,0.0,2.0,72,0.00,,,0.00,WeatherCatV1.15B25,2013-04-19 22:55:00,
2013-04-19 19:00:00,66.0,57.1,29.58,ENE,74,0.0,3.0,73,0.00,,,0.00,WeatherCatV1.15B25,2013-04-19 23:00:00,
2013-04-19 19:05:00,65.9,57.0,29.57,ENE,69,1.0,4.0,73,0.00,,,0.00,WeatherCatV1.15B25,2013-04-19 23:05:00,
2013-04-19 19:10:00,65.8,56.9,29.58,ENE,78,0.0,1.0,73,0.00,,,0.00,WeatherCatV1.15B25,2013-04-19 23:10:00,
2013-04-19 19:15:00,65.8,57.3,29.59,South,179,5.0,5.0,74,0.00,,,0.00,WeatherCatV1.15B25,2013-04-19 23:15:00,
2013-04-19 19:20:00,65.8,57.3,29.59,East,80,0.0,2.0,74,0.00,,,0.00,WeatherCatV1.15B25,2013-04-19 23:20:00,
2013-04-19 19:25:00,65.8,57.3,29.59,NNE,14,0.0,3.0,74,0.00,,,0.00,WeatherCatV1.15B25,2013-04-19 23:25:00,
2013-04-19 19:30:00,65.7,57.2,29.58,South,178,2.0,2.0,74,0.00,,,0.00,WeatherCatV1.15B25,2013-04-19 23:30:00,
2013-04-19 19:35:00,65.6,57.1,29.59,ENE,72,0.0,2.0,74,0.00,,,0.00,WeatherCatV1.15B25,2013-04-19 23:35:00,
2013-04-19 19:40:00,65.4,57.3,29.59,ENE,72,0.0,2.0,75,0.00,,,0.00,WeatherCatV1.15B25,2013-04-19 23:40:00,
2013-04-19 19:45:00,65.3,57.5,29.60,ENE,72,0.0,1.0,76,0.00,,,0.00,WeatherCatV1.15B25,2013-04-19 23:45:00,
2013-04-19 19:50:00,65.2,57.1,29.60,ENE,70,1.0,3.0,75,0.00,,,0.00,WeatherCatV1.15B25,2013-04-19 23:50:00,
2013-04-19 19:55:00,65.2,57.4,29.59,ENE,70,0.0,3.0,76,0.00,,,0.00,WeatherCatV1.15B25,2013-04-19 23:55:00,
2013-04-19 20:00:00,65.1,57.3,29.59,SE,135,0.0,4.0,76,0.00,,,0.00,WeatherCatV1.15B25,2013-04-20 00:00:00,
2013-04-19 20:05:00,65.2,57.8,29.59,ENE,74,3.0,4.0,77,0.00,,,0.00,WeatherCatV1.15B25,2013-04-20 00:05:00,
2013-04-19 20:10:00,65.3,57.9,29.58,ENE,76,2.0,12.0,77,0.00,,,0.00,WeatherCatV1.15B25,2013-04-20 00:10:00,
2013-04-19 20:15:00,65.3,58.3,29.59,WSW,239,3.0,5.0,78,0.00,,,0.00,WeatherCatV1.15B25,2013-04-20 00:15:00,
2013-04-19 20:20:00,65.2,58.2,29.59,North,9,0.0,6.0,78,0.00,,,0.00,WeatherCatV1.15B25,2013-04-20 00:20:00,
2013-04-19 20:25:00,65.1,58.8,29.59,South,182,1.0,9.0,80,0.00,,,0.00,WeatherCatV1.15B25,2013-04-20 00:25:00,
2013-04-19 20:30:00,64.7,58.7,29.59,East,86,2.0,3.0,81,0.00,,,0.00,WeatherCatV1.15B25,2013-04-20 00:30:00,
2013-04-19 20:35:00,64.2,58.6,29.59,ENE,63,0.0,5.0,82,0.00,,,0.00,WeatherCatV1.15B25,2013-04-20 00:35:00,
2013-04-19 20:40:00,63.9,58.6,29.59,NNE,13,2.0,3.0,83,0.00,,,0.00,WeatherCatV1.15B25,2013-04-20 00:40:00,
2013-04-19 20:45:00,63.6,58.7,29.58,NNE,29,0.0,5.0,84,0.00,,,0.00,WeatherCatV1.15B25,2013-04-20 00:45:00,
2013-04-19 20:50:00,63.4,58.8,29.58,ENE,65,3.0,5.0,85,0.00,,,0.00,WeatherCatV1.15B25,2013-04-20 00:50:00,
2013-04-19 20:55:00,63.1,58.8,29.58,East,80,0.0,5.0,86,0.00,,,0.00,WeatherCatV1.15B25,2013-04-20 00:55:00,
2013-04-19 21:00:00,62.9,58.6,29.57,East,80,0.0,0.0,86,0.00,,,0.00,WeatherCatV1.15B25,2013-04-20 01:00:00,
2013-04-19 21:05:00,62.8,58.9,29.57,NE,42,0.0,4.0,87,0.00,,,0.00,WeatherCatV1.15B25,2013-04-20 01:05:00,
2013-04-19 21:10:00,62.7,58.8,29.57,WSW,248,6.0,6.0,87,0.00,,,0.01,WeatherCatV1.15B25,2013-04-20 01:10:00,
2013-04-19 21:15:00,62.6,58.7,29.57,NNE,12,6.0,6.0,87,0.00,,,0.01,WeatherCatV1.15B25,2013-04-20 01:15:00,
2013-04-19 21:20:00,62.8,58.9,29.56,NNE,13,2.0,5.0,87,0.00,,,0.01,WeatherCatV1.15B25,2013-04-20 01:20:00,
2013-04-19 21:25:00,62.9,58.6,29.56,SSE,161,0.0,4.0,86,0.00,,,0.01,WeatherCatV1.15B25,2013-04-20 01:25:00,
2013-04-19 21:30:00,62.9,58.6,29.56,SE,145,0.0,3.0,86,0.00,,,0.01,WeatherCatV1.15B25,2013-04-20 01:30:00,
2013-04-19 21:35:00,63.0,58.7,29.55,SE,144,0.0,2.0,86,0.00,,,0.01,WeatherCatV1.15B25,2013-04-20 01:35:00,
2013-04-19 21:40:00,63.0,58.7,29.55,NE,40,3.0,5.0,86,0.00,,,0.01,WeatherCatV1.15B25,2013-04-20 01:40:00,
2013-04-19 21:45:00,63.1,58.5,29.55,East,79,0.0,1.0,85,0.00,,,0.01,WeatherCatV1.15B25,2013-04-20 01:45:00,
2013-04-19 21:50:00,63.2,58.9,29.55,SW,234,1.0,3.0,86,0.00,,,0.01,WeatherCatV1.15B25,2013-04-20 01:50:00,
2013-04-19 21:55:00,63.3,58.7,29.55,North,5,3.0,5.0,85,0.00,,,0.01,WeatherCatV1.15B25,2013-04-20 01:55:00,
2013-04-19 22:00:00,63.3,58.7,29.55,NE,44,1.0,6.0,85,0.00,,,0.01,WeatherCatV1.15B25,2013-04-20 02:00:00,
2013-04-19 22:05:00,63.4,58.8,29.54,East,81,3.0,4.0,85,0.00,,,0.01,WeatherCatV1.15B25,2013-04-20 02:05:00,
2013-04-19 22:10:00,63.4,58.8,29.54,NE,46,1.0,3.0,85,0.00,,,0.01,WeatherCatV1.15B25,2013-04-20 02:10:00,
2013-04-19 22:16:00,63.5,58.9,29.52,SSE,159,0.0,4.0,85,0.00,,,0.01,WeatherCatV1.15B25,2013-04-20 02:16:00,
2013-04-19 22:21:00,63.5,58.9,29.52,ENE,59,8.0,8.0,85,0.00,,,0.01,WeatherCatV1.15B25,2013-04-20 02:21:00,
2013-04-19 22:26:00,63.6,59.0,29.52,NNW,341,0.0,4.0,85,0.00,,,0.01,WeatherCatV1.15B25,2013-04-20 02:26:00,
2013-04-19 22:31:00,63.7,58.8,29.52,NE,37,6.0,6.0,84,0.00,,,0.01,WeatherCatV1.15B25,2013-04-20 02:31:00,
2013-04-19 22:36:00,63.7,59.1,29.52,NNE,25,5.0,5.0,85,0.00,,,0.01,WeatherCatV1.15B25,2013-04-20 02:36:00,
2013-04-19 22:41:00,63.8,58.9,29.51,SW,226,0.0,5.0,84,0.00,,,0.01,WeatherCatV1.15B25,2013-04-20 02:41:00,
2013-04-19 22:46:00,63.9,59.0,29.51,SSE,153,7.0,9.0,84,0.00,,,0.01,WeatherCatV1.15B25,2013-04-20 02:46:00,
2013-04-19 22:51:00,63.9,59.0,29.51,ENE,64,1.0,3.0,84,0.00,,,0.01,WeatherCatV1.15B25,2013-04-20 02:51:00,
2013-04-19 22:56:00,64.0,59.1,29.51,NNE,30,4.0,9.0,84,0.00,,,0.01,WeatherCatV1.15B25,2013-04-20 02:56:00,
2013-04-19 23:01:00,64.0,59.1,29.50,NE,49,6.0,6.0,84,0.00,,,0.01,WeatherCatV1.15B25,2013-04-20 03:01:00,
2013-04-19 23:06:00,64.2,58.9,29.50,SSE,150,1.0,3.0,83,0.00,,,0.01,WeatherCatV1.15B25,2013-04-20 03:06:00,
2013-04-19 23:11:00,64.1,58.8,29.50,SE,140,0.0,5.0,83,0.00,,,0.01,WeatherCatV1.15B25,2013-04-20 03:11:00,
2013-04-19 23:16:00,64.1,58.8,29.49,NNE,30,2.0,9.0,83,0.00,,,0.01,WeatherCatV1.15B25,2013-04-20 03:16:00,
2013-04-19 23:21:00,64.2,58.9,29.49,SSE,150,1.0,6.0,83,0.00,,,0.01,WeatherCatV1.15B25,2013-04-20 03:21:00,
2013-04-19 23:26:00,64.3,59.0,29.48,ENE,57,1.0,11.0,83,0.00,,,0.01,WeatherCatV1.15B25,2013-04-20 03:26:00,
2013-04-19 23:31:00,64.3,59.4,29.48,NE,37,0.0,6.0,84,0.00,,,0.01,WeatherCatV1.15B25,2013-04-20 03:31:00,
2013-04-19 23:36:00,64.0,59.4,29.47,ENE,59,0.0,2.0,85,0.00,,,0.01,WeatherCatV1.15B25,2013-04-20 03:36:00,
2013-04-19 23:41:00,63.7,59.4,29.47,East,88,3.0,10.0,86,0.00,,,0.01,WeatherCatV1.15B25,2013-04-20 03:41:00,
2013-04-19 23:46:00,63.5,59.6,29.49,SSE,150,3.0,4.0,87,0.52,,,0.06,WeatherCatV1.15B25,2013-04-20 03:46:00,
2013-04-19 23:51:00,63.2,59.6,29.51,SSW,192,3.0,12.0,88,0.42,,,0.10,WeatherCatV1.15B25,2013-04-20 03:51:00,
2013-04-19 23:56:00,63.1,59.8,29.51,West,265,1.0,3.0,89,0.15,,,0.12,WeatherCatV1.15B25,2013-04-20 03:56:00,